Overview Statistics Trail Chart Weather Telemetry Raw packets
 

This is the latest recevied weather packets stored in our database for station/object W8RSN-13. If no packets are shown the sender has not sent any weather packets the latest 10 day(s).

<< 57 58 59 60 61 62 63 >>
Time Temp. Humidity Pressure Rain* Wind** Luminosity Snow
1788292766 28.89° C 37% 1016.9 hPa - - - -
1788292464 29.44° C 38% 1017 hPa - - - -
1788292164 28.89° C 39% 1017.1 hPa - - - -
1788291863 28.89° C 40% 1017.2 hPa - - - -
1788291562 28.33° C 40% 1017 hPa - - - -
1788291261 28.33° C 41% 1017.3 hPa - - - -
1788290960 27.78° C 41% 1017.3 hPa - - - -
1788290659 27.78° C 43% 1017.4 hPa - - - -
1788290358 27.78° C 42% 1017.5 hPa - - - -
1788290057 27.78° C 42% 1017.6 hPa - - - -
1788289757 27.78° C 39% 1017.5 hPa - - - -
1788289456 27.22° C 39% 1017.6 hPa - - - -
1788289175 27.78° C 40% 1017.6 hPa - - - -
1788288874 27.78° C 41% 1017.4 hPa - - - -
1788288573 27.22° C 40% 1017.7 hPa - - - -
1788288272 27.22° C 41% 1017.7 hPa - - - -
1788287971 26.67° C 38% 1017.6 hPa - - - -
1788287670 27.22° C 39% 1017.8 hPa - - - -
1788287369 26.67° C 43% 1017.8 hPa - - - -
1788287069 26.67° C 42% 1017.6 hPa - - - -
1788286768 26.67° C 42% 1018 hPa - - - -
1788286467 26.11° C 42% 1017.7 hPa - - - -
1788286166 26.11° C 41% 1017.9 hPa - - - -
1788285865 26.11° C 42% 1017.7 hPa - - - -
1788285564 25.56° C 44% 1017.9 hPa - - - -

* Rain since midnight (hover to see other rain measurements)
** Current wind speed in m/s (hover to see current wind gust speed)